Time,TemperatureF,DewpointF,PressureIn,WindDirection,WindDirectionDegrees,WindSpeedMPH,WindSpeedGustMPH,Humidity,HourlyPrecipIn,Conditions,Clouds,dailyrainin,SolarRadiationWatts/m^2,SoftwareType,DateUTC
2013-07-15 00:07:00,77.9,-99.9,30.09,WNW,292,2.9,4.3,46,0.00,,BKN250,0.00,0.00,VWS V14.01,2013-07-15 07:07:00,
2013-07-15 00:17:00,77.5,-99.9,30.09,WNW,292,2.9,2.9,46,0.00,,BKN250,0.00,0.00,VWS V14.01,2013-07-15 07:17:00,
2013-07-15 00:27:00,77.4,-99.9,30.09,WNW,292,2.9,2.9,46,0.00,,BKN250,0.00,0.00,VWS V14.01,2013-07-15 07:27:00,
2013-07-15 00:37:00,77.4,-99.9,30.09,WNW,292,2.9,2.9,46,0.00,,BKN250,0.00,0.00,VWS V14.01,2013-07-15 07:37:00,
2013-07-15 00:47:00,77.4,-99.9,30.09,West,270,2.7,2.9,46,0.00,,BKN250,0.00,0.00,VWS V14.01,2013-07-15 07:47:00,
2013-07-15 00:57:00,77.0,-99.9,30.09,West,270,2.7,2.7,47,0.00,,BKN250,0.00,0.00,VWS V14.01,2013-07-15 07:57:00,
2013-07-15 01:07:00,76.6,-99.9,30.09,West,270,2.7,2.7,48,0.00,,BKN250,0.00,0.00,VWS V14.01,2013-07-15 08:07:00,
2013-07-15 01:17:00,76.1,-99.9,30.09,West,270,2.7,2.7,48,0.00,,BKN250,0.00,0.00,VWS V14.01,2013-07-15 08:17:00,
2013-07-15 01:27:00,76.3,-99.9,30.09,West,270,2.7,2.7,48,0.00,,BKN250,0.00,0.00,VWS V14.01,2013-07-15 08:27:00,
2013-07-15 01:37:00,76.1,-99.9,30.09,West,270,2.7,2.7,48,0.00,,BKN250,0.00,0.00,VWS V14.01,2013-07-15 08:37:00,
2013-07-15 01:47:00,75.9,-99.9,30.09,NW,315,4.3,4.3,48,0.00,,BKN250,0.00,0.00,VWS V14.01,2013-07-15 08:47:00,
2013-07-15 01:57:00,76.3,-99.9,30.09,NW,315,4.3,4.3,48,0.00,,BKN250,0.00,0.00,VWS V14.01,2013-07-15 08:57:00,
2013-07-15 02:07:00,76.3,-99.9,30.06,WNW,292,3.6,4.3,48,0.00,,SCT250,0.00,0.00,VWS V14.01,2013-07-15 09:07:00,
2013-07-15 02:17:00,76.3,-99.9,30.06,NW,315,4.9,4.9,48,0.00,,SCT250,0.00,0.00,VWS V14.01,2013-07-15 09:17:00,
2013-07-15 02:27:00,75.7,-99.9,30.09,NW,315,4.0,4.9,48,0.00,,SCT250,0.00,0.00,VWS V14.01,2013-07-15 09:27:00,
2013-07-15 02:37:00,75.9,-99.9,30.09,WNW,292,4.3,4.3,48,0.00,,SCT250,0.00,0.00,VWS V14.01,2013-07-15 09:37:00,
2013-07-15 02:47:00,76.1,-99.9,30.09,WNW,292,4.3,4.3,48,0.00,,SCT250,0.00,0.00,VWS V14.01,2013-07-15 09:47:00,
2013-07-15 02:57:00,75.6,-99.9,30.06,WNW,292,4.3,4.3,48,0.00,,SCT250,0.00,0.00,VWS V14.01,2013-07-15 09:57:00,
2013-07-15 03:07:00,74.7,-99.9,30.06,NW,315,1.3,4.3,50,0.00,,SCT250,0.00,0.00,VWS V14.01,2013-07-15 10:07:00,
2013-07-15 03:17:00,73.8,-99.9,30.09,NW,315,1.3,1.3,51,0.00,,SCT250,0.00,0.00,VWS V14.01,2013-07-15 10:17:00,
2013-07-15 03:27:00,73.4,-99.9,30.09,NW,315,1.3,1.3,52,0.00,,SCT250,0.00,0.00,VWS V14.01,2013-07-15 10:27:00,
2013-07-15 03:37:00,72.9,-99.9,30.09,WNW,292,2.7,2.7,55,0.00,,SCT250,0.00,0.00,VWS V14.01,2013-07-15 10:37:00,
2013-07-15 03:47:00,72.1,-99.9,30.09,NW,315,2.0,2.7,55,0.00,,SCT250,0.00,0.00,VWS V14.01,2013-07-15 10:47:00,
2013-07-15 03:57:00,71.4,-99.9,30.09,NW,315,0.0,2.0,58,0.00,,SCT250,0.00,0.00,VWS V14.01,2013-07-15 10:57:00,
2013-07-15 04:07:00,70.3,-99.9,30.09,NW,315,0.0,0.0,62,0.00,,BKN250,0.00,0.00,VWS V14.01,2013-07-15 11:07:00,
2013-07-15 04:17:00,70.0,-99.9,30.09,NW,315,0.0,0.0,64,0.00,,BKN250,0.00,0.00,VWS V14.01,2013-07-15 11:17:00,
2013-07-15 04:27:00,69.4,-99.9,30.09,NW,315,0.0,0.0,67,0.00,,BKN250,0.00,0.00,VWS V14.01,2013-07-15 11:27:00,
2013-07-15 04:37:00,69.1,-99.9,30.09,NW,315,0.0,0.0,68,0.00,,BKN250,0.00,0.00,VWS V14.01,2013-07-15 11:37:00,
2013-07-15 04:47:00,68.5,-99.9,30.09,SSW,202,0.9,0.9,72,0.00,,BKN250,0.00,0.00,VWS V14.01,2013-07-15 11:47:00,
2013-07-15 04:57:00,68.4,-99.9,30.09,SSW,202,0.9,0.9,73,0.00,,BKN250,0.00,0.00,VWS V14.01,2013-07-15 11:57:00,
2013-07-15 05:07:00,68.5,-99.9,30.09,South,180,0.0,0.9,72,0.00,,BKN250,0.00,0.00,VWS V14.01,2013-07-15 12:07:00,
2013-07-15 05:17:00,68.2,-99.9,30.09,South,180,0.0,0.0,76,0.00,,BKN250,0.00,0.00,VWS V14.01,2013-07-15 12:17:00,
2013-07-15 05:27:00,68.0,-99.9,30.09,WSW,248,3.8,3.8,77,0.00,,BKN250,0.00,0.00,VWS V14.01,2013-07-15 12:27:00,
2013-07-15 05:37:00,68.0,-99.9,30.09,West,270,2.0,3.8,77,0.00,,BKN250,0.00,0.00,VWS V14.01,2013-07-15 12:37:00,
2013-07-15 05:47:00,68.5,-99.9,30.09,WSW,248,2.7,2.9,76,0.00,,BKN250,0.00,0.00,VWS V14.01,2013-07-15 12:47:00,
2013-07-15 05:57:00,68.9,-99.9,30.09,WSW,248,2.7,3.1,76,0.00,,BKN250,0.00,0.00,VWS V14.01,2013-07-15 12:57:00,
2013-07-15 06:07:00,69.6,-99.9,30.09,NW,315,1.3,2.7,74,0.00,,BKN280,0.00,0.00,VWS V14.01,2013-07-15 13:07:00,
2013-07-15 06:17:00,72.0,-99.9,30.09,NW,315,1.6,2.5,71,0.00,,BKN280,0.00,0.00,VWS V14.01,2013-07-15 13:17:00,
2013-07-15 06:27:00,73.6,-99.9,30.09,NW,315,2.5,4.3,66,0.00,,BKN280,0.00,0.00,VWS V14.01,2013-07-15 13:27:00,
2013-07-15 06:37:00,74.7,-99.9,30.09,WNW,292,2.0,3.4,62,0.00,,BKN280,0.00,0.00,VWS V14.01,2013-07-15 13:37:00,
2013-07-15 06:47:00,75.6,-99.9,30.09,West,270,2.9,3.6,60,0.00,,BKN280,0.00,0.00,VWS V14.01,2013-07-15 13:47:00,
2013-07-15 06:57:00,76.3,-99.9,30.09,NW,315,0.0,2.9,59,0.00,,BKN280,0.00,0.00,VWS V14.01,2013-07-15 13:57:00,
2013-07-15 07:07:00,79.0,-99.9,30.09,North,0,1.3,2.5,55,0.00,,BKN280,0.00,0.00,VWS V14.01,2013-07-15 14:07:00,
2013-07-15 07:17:00,79.0,-99.9,30.09,North,0,2.7,2.7,55,0.00,,BKN280,0.00,0.00,VWS V14.01,2013-07-15 14:17:00,
2013-07-15 07:27:00,79.0,-99.9,30.09,East,90,2.7,3.6,55,0.00,,BKN280,0.00,0.00,VWS V14.01,2013-07-15 14:27:00,
2013-07-15 07:37:00,79.0,-99.9,30.12,ENE,68,0.9,2.7,55,0.00,,BKN280,0.00,0.00,VWS V14.01,2013-07-15 14:37:00,
2013-07-15 07:47:00,79.0,-99.9,30.12,ENE,68,2.2,3.8,55,0.00,,BKN280,0.00,0.00,VWS V14.01,2013-07-15 14:47:00,
2013-07-15 07:57:00,79.0,-99.9,30.12,ENE,68,3.1,3.4,55,0.00,,BKN280,0.00,0.00,VWS V14.01,2013-07-15 14:57:00,
2013-07-15 08:07:00,79.0,-99.9,30.12,ENE,68,3.6,3.6,55,0.00,,BKN280,0.00,0.00,VWS V14.01,2013-07-15 15:07:00,
2013-07-15 08:17:00,79.0,-99.9,30.12,ESE,112,2.9,3.6,55,0.00,,BKN280,0.00,0.00,VWS V14.01,2013-07-15 15:17:00,
2013-07-15 08:27:00,79.0,-99.9,30.12,SE,135,2.7,3.6,55,0.00,,BKN280,0.00,0.00,VWS V14.01,2013-07-15 15:27:00,
2013-07-15 08:37:00,86.2,-99.9,30.12,East,90,2.7,2.9,41,0.00,,BKN280,0.00,0.00,VWS V14.01,2013-07-15 15:37:00,
2013-07-15 08:47:00,86.2,-99.9,30.12,ESE,112,3.4,4.5,41,0.00,,BKN280,0.00,0.00,VWS V14.01,2013-07-15 15:47:00,
2013-07-15 08:57:00,86.2,-99.9,30.12,East,90,3.6,3.8,41,0.00,,BKN280,0.00,0.00,VWS V14.01,2013-07-15 15:57:00,
2013-07-15 09:07:00,86.2,-99.9,30.12,East,90,2.9,5.4,41,0.00,,BKN280,0.00,0.00,VWS V14.01,2013-07-15 16:07:00,
2013-07-15 09:17:00,86.2,-99.9,30.12,East,90,0.9,3.8,41,0.00,,BKN280,0.00,0.00,VWS V14.01,2013-07-15 16:17:00,
2013-07-15 09:27:00,86.2,-99.9,30.12,WNW,292,0.0,2.9,41,0.00,,BKN280,0.00,0.00,VWS V14.01,2013-07-15 16:27:00,
2013-07-15 09:37:00,86.2,-99.9,30.12,South,180,0.0,2.7,41,0.00,,BKN280,0.00,0.00,VWS V14.01,2013-07-15 16:37:00,
2013-07-15 09:57:00,86.2,-99.9,30.12,ESE,112,1.3,4.3,41,0.00,,BKN280,0.00,0.00,VWS V14.01,2013-07-15 16:57:00,
2013-07-15 10:07:00,86.2,-99.9,30.09,ENE,68,3.8,4.7,41,0.00,,BKN280,0.00,0.00,VWS V14.01,2013-07-15 17:07:00,
2013-07-15 10:17:00,86.2,-99.9,30.09,WSW,248,1.3,5.8,41,0.00,,BKN280,0.00,0.00,VWS V14.01,2013-07-15 17:17:00,
2013-07-15 10:37:00,86.2,-99.9,30.12,SSE,158,3.6,8.1,41,0.00,,BKN280,0.00,0.00,VWS V14.01,2013-07-15 17:37:00,
2013-07-15 10:57:00,86.2,-99.9,30.09,ENE,68,3.6,7.6,41,0.00,,BKN280,0.00,0.00,VWS V14.01,2013-07-15 17:57:00,
2013-07-15 11:07:00,86.2,-99.9,30.09,SE,135,3.8,7.8,41,0.00,,BKN280,0.00,0.00,VWS V14.01,2013-07-15 18:07:00,
2013-07-15 11:17:00,86.2,-99.9,30.09,ENE,68,2.7,12.1,41,0.00,,BKN280,0.00,0.00,VWS V14.01,2013-07-15 18:17:00,
2013-07-15 11:57:00,77.0,-99.9,30.12,WSW,248,11.0,19.0,40,0.00,,BKN280,0.00,0.00,VWS V14.01,2013-07-15 18:57:00,
2013-07-15 12:07:00,75.4,-99.9,30.12,SSW,202,10.5,11.0,52,0.00,,,0.00,0.00,VWS V14.01,2013-07-15 19:07:00,
2013-07-15 12:27:00,72.0,-99.9,30.12,West,270,11.0,14.8,71,0.00,,,0.00,0.00,VWS V14.01,2013-07-15 19:27:00,
2013-07-15 12:37:00,75.0,-99.9,30.09,West,270,10.7,13.0,62,0.00,,,0.00,0.00,VWS V14.01,2013-07-15 19:37:00,
2013-07-15 12:47:00,74.7,-99.9,30.09,SW,225,7.6,10.7,64,0.00,,,0.00,0.00,VWS V14.01,2013-07-15 19:47:00,
2013-07-15 12:57:00,75.6,-99.9,30.09,WSW,248,5.8,12.5,57,0.00,,,0.00,0.00,VWS V14.01,2013-07-15 19:57:00,
2013-07-15 13:17:00,76.5,-99.9,30.06,WNW,292,9.4,12.8,51,0.00,,,0.00,0.00,VWS V14.01,2013-07-15 20:17:00,
2013-07-15 13:27:00,76.3,-99.9,30.09,WSW,248,17.0,17.0,46,0.00,,,0.00,0.00,VWS V14.01,2013-07-15 20:27:00,
2013-07-15 13:37:00,76.6,-99.9,30.09,South,180,3.1,17.0,44,0.00,,,0.00,0.00,VWS V14.01,2013-07-15 20:37:00,
2013-07-15 13:47:00,76.6,-99.9,30.09,SW,225,6.5,9.6,44,0.00,,,0.00,0.00,VWS V14.01,2013-07-15 20:47:00,
2013-07-15 13:57:00,77.2,-99.9,30.06,WNW,292,4.3,6.5,44,0.00,,,0.00,0.00,VWS V14.01,2013-07-15 20:57:00,
2013-07-15 14:07:00,77.2,-99.9,30.09,WNW,292,6.3,6.3,44,0.00,,,0.00,0.00,VWS V14.01,2013-07-15 21:07:00,
2013-07-15 14:27:00,79.9,-99.9,30.09,WSW,248,6.3,6.3,46,0.00,,,0.00,0.00,VWS V14.01,2013-07-15 21:27:00,
2013-07-15 14:37:00,80.8,-99.9,30.06,North,0,2.2,6.3,45,0.00,,,0.00,0.00,VWS V14.01,2013-07-15 21:37:00,
2013-07-15 14:47:00,81.3,-99.9,30.06,North,0,2.2,2.2,45,0.00,,,0.00,0.00,VWS V14.01,2013-07-15 21:47:00,
2013-07-15 14:57:00,82.8,-99.9,30.06,North,0,2.2,2.2,44,0.00,,,0.00,0.00,VWS V14.01,2013-07-15 21:57:00,
2013-07-15 15:07:00,84.0,-99.9,30.06,ENE,68,0.0,2.2,44,0.00,,BKN250,0.00,0.00,VWS V14.01,2013-07-15 22:07:00,
2013-07-15 15:17:00,84.0,-99.9,30.03,ENE,68,0.0,0.0,44,0.00,,BKN250,0.00,0.00,VWS V14.01,2013-07-15 22:17:00,
2013-07-15 15:27:00,84.0,-99.9,30.06,ENE,68,0.0,0.0,44,0.00,,BKN250,0.00,0.00,VWS V14.01,2013-07-15 22:27:00,
2013-07-15 15:37:00,84.0,-99.9,30.06,ENE,68,0.0,0.0,44,0.00,,BKN250,0.00,0.00,VWS V14.01,2013-07-15 22:37:00,
2013-07-15 15:47:00,84.0,-99.9,30.06,ENE,68,0.0,0.0,44,0.00,,BKN250,0.00,0.00,VWS V14.01,2013-07-15 22:47:00,
2013-07-15 15:57:00,84.0,-99.9,30.03,ENE,68,0.0,0.0,44,0.00,,BKN250,0.00,0.00,VWS V14.01,2013-07-15 22:57:00,
2013-07-15 16:07:00,84.0,-99.9,30.03,ENE,68,0.0,0.0,44,0.00,,BKN250,0.00,0.00,VWS V14.01,2013-07-15 23:07:00,
2013-07-15 16:17:00,84.9,-99.9,30.03,WSW,248,7.8,7.8,42,0.00,,BKN250,0.00,0.00,VWS V14.01,2013-07-15 23:17:00,
2013-07-15 16:27:00,85.1,-99.9,30.03,WSW,248,7.8,7.8,42,0.00,,BKN250,0.00,0.00,VWS V14.01,2013-07-15 23:27:00,
2013-07-15 16:37:00,84.4,-99.9,30.03,WNW,292,11.0,11.0,41,0.00,,BKN250,0.00,0.00,VWS V14.01,2013-07-15 23:37:00,
2013-07-15 17:07:00,84.4,-99.9,30.03,WNW,292,11.0,11.0,41,0.00,,CLR,0.00,0.00,VWS V14.01,2013-07-16 00:07:00,
2013-07-15 17:17:00,84.4,-99.9,30.03,WSW,248,2.7,11.0,41,0.00,,CLR,0.00,0.00,VWS V14.01,2013-07-16 00:17:00,
2013-07-15 17:27:00,84.4,-99.9,30.03,WNW,292,3.1,3.1,41,0.00,,CLR,0.00,0.00,VWS V14.01,2013-07-16 00:27:00,
2013-07-15 17:37:00,84.4,-99.9,30.03,WNW,292,3.1,3.1,41,0.00,,CLR,0.00,0.00,VWS V14.01,2013-07-16 00:37:00,
2013-07-15 17:47:00,84.7,-99.9,30.03,WNW,292,3.1,3.1,39,0.00,,CLR,0.00,0.00,VWS V14.01,2013-07-16 00:47:00,
2013-07-15 17:57:00,84.4,-99.9,30.03,WNW,292,3.1,3.1,39,0.00,,CLR,0.00,0.00,VWS V14.01,2013-07-16 00:57:00,
2013-07-15 18:07:00,84.0,-99.9,30.03,WNW,292,3.1,3.1,39,0.00,,CLR,0.00,0.00,VWS V14.01,2013-07-16 01:07:00,
2013-07-15 18:27:00,82.8,-99.9,30.03,West,270,5.4,6.3,40,0.00,,CLR,0.00,0.00,VWS V14.01,2013-07-16 01:27:00,
2013-07-15 18:37:00,82.6,-99.9,30.03,NW,315,3.1,6.3,40,0.00,,CLR,0.00,0.00,VWS V14.01,2013-07-16 01:37:00,
2013-07-15 18:47:00,82.2,-99.9,30.03,West,270,3.6,3.6,40,0.00,,CLR,0.00,0.00,VWS V14.01,2013-07-16 01:47:00,
2013-07-15 18:57:00,82.2,-99.9,30.03,West,270,5.8,5.8,40,0.00,,CLR,0.00,0.00,VWS V14.01,2013-07-16 01:57:00,
2013-07-15 19:17:00,81.7,-99.9,30.06,WSW,248,5.8,8.1,41,0.00,,CLR,0.00,0.00,VWS V14.01,2013-07-16 02:17:00,
2013-07-15 19:27:00,81.5,-99.9,30.06,WSW,248,7.6,7.6,41,0.00,,CLR,0.00,0.00,VWS V14.01,2013-07-16 02:27:00,
2013-07-15 19:37:00,81.7,-99.9,30.06,WSW,248,5.8,7.6,41,0.00,,CLR,0.00,0.00,VWS V14.01,2013-07-16 02:37:00,
2013-07-15 19:47:00,81.5,-99.9,30.06,WSW,248,7.2,7.2,41,0.00,,CLR,0.00,0.00,VWS V14.01,2013-07-16 02:47:00,
2013-07-15 19:57:00,81.5,-99.9,30.06,West,270,7.8,7.8,41,0.00,,CLR,0.00,0.00,VWS V14.01,2013-07-16 02:57:00,
2013-07-15 20:07:00,81.5,-99.9,30.06,WSW,248,8.1,8.1,41,0.00,,FEW100,0.00,0.00,VWS V14.01,2013-07-16 03:07:00,
2013-07-15 20:17:00,81.7,-99.9,30.06,WSW,248,4.0,8.1,41,0.00,,FEW100,0.00,0.00,VWS V14.01,2013-07-16 03:17:00,
2013-07-15 20:27:00,81.5,-99.9,30.06,SW,225,4.9,4.9,41,0.00,,,0.00,0.00,VWS V14.01,2013-07-16 03:27:00,
2013-07-15 20:37:00,81.5,-99.9,30.06,WSW,248,6.5,6.5,41,0.00,,,0.00,0.00,VWS V14.01,2013-07-16 03:37:00,
2013-07-15 20:47:00,79.3,-99.9,30.06,SSW,202,6.5,9.2,45,0.00,,,0.00,0.00,VWS V14.01,2013-07-16 03:47:00,
2013-07-15 20:57:00,77.0,-99.9,30.06,SSW,202,4.3,8.7,50,0.00,,,0.00,0.00,VWS V14.01,2013-07-16 03:57:00,
2013-07-15 21:07:00,72.7,-99.9,30.12,South,180,7.6,7.6,68,0.00,,BKN075,0.00,0.00,VWS V14.01,2013-07-16 04:07:00,
2013-07-15 21:17:00,71.8,-99.9,30.12,SE,135,12.5,12.5,72,0.00,,BKN075,0.00,0.00,VWS V14.01,2013-07-16 04:17:00,
2013-07-15 21:37:00,71.8,-99.9,30.18,SSW,202,8.1,12.5,72,0.00,,BKN075,0.00,0.00,VWS V14.01,2013-07-16 04:37:00,
2013-07-15 21:47:00,71.8,-99.9,30.18,SSW,202,8.1,8.1,72,0.00,,BKN075,0.00,0.00,VWS V14.01,2013-07-16 04:47:00,
2013-07-15 21:57:00,71.8,-99.9,30.15,SSE,158,3.6,8.1,72,0.00,,BKN075,0.00,0.00,VWS V14.01,2013-07-16 04:57:00,
2013-07-15 22:07:00,68.0,-99.9,30.15,South,180,4.0,10.7,91,0.00,,OVC060,0.00,0.00,VWS V14.01,2013-07-16 05:07:00,
2013-07-15 22:17:00,66.7,-99.9,30.15,South,180,2.5,10.7,94,0.00,,OVC060,0.00,0.00,VWS V14.01,2013-07-16 05:17:00,
2013-07-15 22:27:00,66.7,-99.9,30.15,South,180,4.3,9.8,97,0.00,,OVC060,0.00,0.00,VWS V14.01,2013-07-16 05:27:00,
2013-07-15 22:37:00,66.7,-99.9,30.18,South,180,8.7,12.1,97,0.00,,OVC060,0.00,0.00,VWS V14.01,2013-07-16 05:37:00,
2013-07-15 22:47:00,66.7,-99.9,30.18,South,180,8.5,13.0,98,0.00,,OVC060,0.00,0.00,VWS V14.01,2013-07-16 05:47:00,
2013-07-15 22:57:00,66.4,-99.9,30.18,South,180,3.6,11.4,99,0.00,,OVC060,0.00,0.00,VWS V14.01,2013-07-16 05:57:00,
2013-07-15 23:07:00,66.0,-99.9,30.18,SSW,202,10.1,11.0,99,0.00,,OVC120,0.00,0.00,VWS V14.01,2013-07-16 06:07:00,
2013-07-15 23:17:00,65.8,-99.9,30.18,South,180,8.7,12.5,100,0.00,,OVC120,0.00,0.00,VWS V14.01,2013-07-16 06:17:00,
2013-07-15 23:27:00,65.7,-99.9,30.18,SSE,158,4.3,9.8,100,0.00,,OVC120,0.00,0.00,VWS V14.01,2013-07-16 06:27:00,
2013-07-15 23:37:00,65.7,-99.9,30.18,South,180,4.9,13.0,100,0.00,,OVC120,0.00,0.00,VWS V14.01,2013-07-16 06:37:00,
2013-07-15 23:47:00,65.7,-99.9,30.18,South,180,10.5,13.0,100,0.00,,OVC120,0.00,0.00,VWS V14.01,2013-07-16 06:47:00,
2013-07-15 23:57:00,65.8,-99.9,30.15,SSW,202,6.0,12.5,100,0.00,,OVC120,0.00,0.00,VWS V14.01,2013-07-16 06:57:00,